Вернуться в каталог

STARLINK-36122

АктивенСвязьVLEO
NORAD 66952·PAYLOAD·🇺🇸 United States

Запущен Dec 7, 2025 с Vandenberg Space Force Base

Loading…

Ближайшие Пролёты (ближайшие 24 часа)

TLE

СвежийSource: CelesTrak SupGP

Эпоха: Sep 15, 2026, 03:24 UTC

1 66952C 25286AD  26258.14215278 -.00237910  00000+0 -70236-2 0  2585
2 66952  53.1572 194.6548 0001242  86.5782  15.7561 15.34534246    18

Отслеживайте STARLINK-36122 в реальном времени с AllMySat

Download on the App Store